Simultaneous Nadir Overpasses (SNOs) Predictions

Prediction of SNOs between GOES-14 and NOAA-20 Satellite Orbit:

Table of predicted SNOs for the next 14.0 days since TLE Epoch: 10/26/2018
Index Date Time (GOES-14) GOES-14 Lat,Lon NOAA-20 Lat,Lon Distance(km) Time Diff (sec)
1 10/27/2018 08:11:00 0.19,-104.11 -0.29,-102.01 239.37 80
2 10/28/2018 20:32:56 -0.17,-104.05 -0.89,-107.32 371.89 80
3 10/29/2018 20:16:50 -0.18,-104.06 0.08,-102.78 145.37 80
4 10/31/2018 08:38:40 0.15,-104.13 1.00,-108.06 448.40 80
5 11/01/2018 08:17:14 0.16,-104.11 0.03,-103.52 67.08 80
6 11/03/2018 20:20:26 -0.14,-104.03 -0.18,-104.30 29.88 80
7 11/04/2018 20:04:21 -0.16,-104.04 0.79, -99.76 487.79 80
8 11/06/2018 08:26:09 0.13,-104.12 0.35,-105.03 103.90 80
9 11/07/2018 08:04:44 0.15,-104.12 -0.68,-100.50 412.09 80
10 11/08/2018 20:26:41 -0.12,-104.02 -0.49,-105.81 203.21 80




NCC Satellite Simultaneous Nadir Overpasses (SNOs) Prediction Service
